Regional Weather Roundup
Issued by NWS

Home | Current Version | Previous Version | Text Only | Print | Product List | Glossary On
Versions: 1 2 3 4 5 6 7 8 9 10 11 12 13 14 15 16 17 18 19 20 21 22 23 24 25 26 27 28 29 30 31 32 33 34 35 36 37 38 39 40 41 42 43 44 45 46 47 48 49 50
000
ASUS45 KABQ 251510
RWRNM
NEW MEXICO REGIONAL WEATHER ROUNDUP
NATIONAL WEATHER SERVICE ALBUQUERQUE NM
900 AM MDT WED APR 25 2018

NOTE: "FAIR" MEANS FEW OR NO CLOUDS BELOW 12,000 FEET AGL WITH NO
       SIGNIFICANT WEATHER OR OBSTRUCTIONS TO VISION.

      THIS PRODUCT IS RELEASED AS TWO VERSIONS.  ONE VERSION NEAR
      THE TOP OF THE HOUR CONTAINING PRELIMINARY DATA FROM ALBUQUERQUE
      AND OTHER STATIONS.  A FINAL VERSION WITH ADDITIONAL DATA IS
      ISSUED ABOUT 10 MINUTES AFTER THE HOUR.

NMZ501-503-504-510>518-251600-
NORTHWEST PLATEAU/NORTHCENTRAL MOUNTAINS

CITY           SKY/WX    TMP DP  RH WIND       PRES   REMARKS
FARMINGTON     FAIR      51  13  21 CALM      30.23S
LOS ALAMOS     FAIR      45  33  62 E3        30.35S
SANTA FE       FAIR      45  30  55 S14       30.33R
TAOS           FAIR      46  25  43 CALM      30.36S
ANGEL FIRE     FAIR      36  28  72 CALM      30.36F

$$
NMZ402-403-502-505>509-251600-
WESTCENTRAL MOUNTAINS/SOUTHWEST MOUNTAINS

CITY           SKY/WX    TMP DP  RH WIND       PRES   REMARKS
GALLUP         FAIR      57  11  16 E10       30.28R
GRANTS         FAIR      50  33  53 SE8       30.31S
SILVER CITY    FAIR      65  18  16 S3        30.21R

$$
NMZ407-409-411-412-251600-
SOUTHERN DESERTS

CITY           SKY/WX    TMP DP  RH WIND       PRES   REMARKS
DEMING         FAIR      62  35  36 NE20G30   30.20R
LAS CRUCES     FAIR      57  35  42 NW6       30.24R
HOLLOMAN AFB   FAIR      57  37  46 S14       30.25R
ALAMOGORDO     FAIR      57  37  47 S15       30.24R
T OR C         FAIR      53  36  52 N18G29    30.25R

$$
NMZ519>523-251600-
CENTRAL VALLEYS/CENTRAL HIGHLANDS

CITY           SKY/WX    TMP DP  RH WIND       PRES   REMARKS
ALBUQUERQUE    FAIR      51  33  50 E16       30.30R
DOUBLE EAGLE   MOSUNNY   48  32  53 CALM      30.31S
MORIARTY ARPT  CLOUDY    45  32  60 SE8       30.37S
CLINES CORNERS CLOUDY    38  27  64 E12       30.37R WCI  30
BELEN          FAIR      51  34  51 SW7       30.31R
SOCORRO        FAIR      51  34  52 CALM      30.32R

$$
NMZ524>526-539-540-251600-
SOUTHCENTRAL MOUNTAINS

CITY           SKY/WX    TMP DP  RH WIND       PRES   REMARKS
RUIDOSO        NOT AVBL

$$
NMZ527>531-251600-
NORTHEAST HIGHLANDS/NORTHEAST PLAINS

CITY           SKY/WX    TMP DP  RH WIND       PRES   REMARKS
LAS VEGAS      FAIR      40  26  57 CALM      30.36R
RATON          FAIR      43  25  49 N5        30.33F
CLAYTON        FAIR      43  29  57 N18G25    30.33F

$$
NMZ532>537-251600-
EASTCENTRAL PLAINS

CITY           SKY/WX    TMP DP  RH WIND       PRES   REMARKS
SANTA ROSA     CLOUDY    44  31  60 SE6       30.37R
TUCUMCARI      FAIR      46  33  60 E12       30.35S
CANNON AFB     CLOUDY    42  37  82 NE18G26   30.37R
CLOVIS AIRPORT CLOUDY    41  32  70 NE22G29   30.36S

$$
NMZ028-029-538-251600-
SOUTHEAST PLAINS

CITY           SKY/WX    TMP DP  RH WIND       PRES   REMARKS
ROSWELL        CLOUDY    44  39  82 N14       30.39S
ARTESIA        PTSUNNY   43  43 100 N16       30.40R FOG
CARLSBAD       LGT RAIN  44  42  93 N20       30.37R FOG
HOBBS          CLOUDY    41  39  93 N22G29    30.35R FOG


$$



USA.gov is the U.S. government's official web portal to all federal, state and local government web resources and services.